CW2840 Weather Reports


time (UTC)temp
C
wind
direction
speed
KPH
gust
KPH
rain 1hr
cm
rain 24hr
cm
rain mn
cm
humidity
%
barometer
mb
20260906143105 27 134 3.2 8.0 0.00 0.00 0.00 85 1014.4
20260906141602 26 134 1.6 8.0 0.00 0.00 0.00 87 1014.5
20260906134602 26 131 3.2 8.0 0.00 0.00 0.00 89 1014.3
20260906133104 25 133 3.2 8.0 0.00 0.00 0.00 90 1014.1
20260906131602 25 133 0.0 4.8 0.00 0.00 0.00 90 1014.0
20260906130755 25 133 1.6 3.2 0.00 0.00 0.00 90 1013.8
20260906124601 24 133 0.0 3.2 0.00 0.00 0.00 91 1013.6
20260906123814 24 133 0.0 3.2 0.00 0.00 0.00 90 1013.3
20260906121603 24 133 0.0 3.2 0.00 0.00 0.00 90 1013.2
20260906120104 24 133 1.6 4.8 0.00 0.00 0.00 90 1013.2
20260906114603 24 133 0.0 3.2 0.00 0.00 0.00 90 1013.3
20260906113802 24 133 0.0 3.2 0.00 0.00 0.00 90 1012.9
20260906111602 24 131 0.0 3.2 0.00 0.00 0.00 90 1012.8
20260906110103 24 131 0.0 3.2 0.00 0.00 0.00 90 1012.5
20260906104602 24 133 0.0 3.2 0.00 0.00 0.00 90 1012.4
20260906103104 24 133 1.6 3.2 0.00 0.00 0.00 90 1012.4
20260906101602 24 131 0.0 3.2 0.00 0.00 0.00 90 1012.3
20260906100104 24 131 0.0 0.0 0.00 0.00 0.00 90 1012.3
20260906094602 24 133 0.0 0.0 0.00 0.00 0.00 90 1012.3
20260906094504 25 131 0.0 3.2 0.00 0.00 0.00 90 1012.3
20260906091602 25 133 0.0 3.2 0.00 0.00 0.00 89 1012.3
20260906090103 25 133 0.0 4.8 0.00 0.00 0.00 89 1012.1
20260906084602 25 133 0.0 3.2 0.00 0.00 0.00 89 1012.0
20260906083105 25 133 0.0 8.0 0.00 0.00 0.00 89 1012.0
20260906081602 25 133 0.0 3.2 0.00 0.00 0.00 89 1012.1
20260906080816 25 133 0.0 4.8 0.00 0.00 0.00 89 1012.3
20260906075258 25 133 0.0 3.2 0.00 0.00 0.00 89 1012.5
20260906073103 25 133 0.0 3.2 0.00 0.00 0.00 89 1012.5
20260906072251 25 133 0.0 3.2 0.00 0.00 0.00 88 1012.5
20260906070103 25 133 1.6 3.2 0.00 0.00 0.00 88 1012.7
20260906065301 25 133 0.0 0.0 0.00 0.00 0.00 88 1012.5
20260906063105 25 133 0.0 3.2 0.00 0.00 0.00 88 1012.6
20260906061602 25 133 0.0 3.2 0.00 0.00 0.00 88 1012.4
20260906060103 25 133 0.0 4.8 0.00 0.00 0.00 88 1012.6
20260906054603 25 133 1.6 4.8 0.00 0.00 0.00 88 1012.6
20260906053104 25 133 0.0 3.2 0.00 0.00 0.00 88 1012.6
20260906051602 25 133 0.0 3.2 0.00 0.00 0.00 88 1012.6
20260906050105 25 133 0.0 3.2 0.00 0.00 0.00 88 1012.5
20260906045305 25 133 0.0 4.8 0.00 0.00 0.00 88 1012.5
20260906043104 25 131 1.6 3.2 0.00 0.00 0.00 88 1012.6
20260906041602 25 131 1.6 8.0 0.00 0.00 0.00 88 1012.6
20260906040603 25 123 0.0 3.2 0.00 0.00 0.00 88 1012.7
20260906040132 25 131 3.2 8.0 0.00 0.00 0.00 88 1012.7
20260906034722 25 123 1.6 3.2 0.00 0.00 0.00 88 1012.6
20260906031602 25 123 0.0 3.2 0.00 0.00 0.00 88 1012.8
20260906030104 25 123 0.0 3.2 0.00 0.00 0.00 88 1012.6
20260906024604 25 123 0.0 3.2 0.00 0.00 0.00 88 1012.4
20260906023103 25 123 1.6 4.8 0.00 0.00 0.00 88 1012.3
20260906021602 25 123 0.0 3.2 0.00 0.00 0.00 88 1012.1
20260906020104 25 123 0.0 4.8 0.00 0.00 0.00 87 1012.1
20260906014602 25 123 3.2 8.0 0.00 0.00 0.00 87 1012.1
20260906013104 25 123 1.6 4.8 0.00 0.00 0.00 87 1011.7
20260906012256 26 123 1.6 4.8 0.00 0.00 0.00 86 1011.5
20260906010104 26 123 3.2 8.0 0.00 0.00 0.00 85 1011.4
20260906005255 26 123 3.2 8.0 0.00 0.00 0.00 85 1011.7
20260906003104 26 123 3.2 4.8 0.00 0.00 0.00 84 1011.8
20260906002258 26 123 3.2 8.0 0.00 0.00 0.00 83 1012.0
20260906000104 26 123 3.2 8.0 0.00 0.00 0.00 82 1012.2
20260905235258 26 127 1.6 11.3 0.00 0.00 0.00 81 1012.5
20260905233104 27 111 4.8 14.5 0.00 0.00 0.00 80 1012.4
20260905231602 27 86 4.8 8.0 0.00 0.00 0.00 78 1012.3
20260905230103 27 86 3.2 8.0 0.00 0.00 0.00 75 1012.3
20260905224602 27 106 4.8 4.8 0.00 0.00 0.00 75 1012.1
20260905223104 27 106 1.6 4.8 0.00 0.00 0.00 75 1011.9
20260905221603 27 106 0.0 17.7 0.00 0.00 0.00 75 1012.0
20260905220103 27 66 4.8 14.5 0.00 0.00 0.00 74 1011.8
20260905215312 28 125 6.4 25.7 0.00 0.00 0.00 72 1012.2
20260905213104 28 124 16.1 32.2 0.00 0.00 0.00 73 1012.0
20260905212313 30 164 9.7 25.7 0.00 0.00 0.00 68 1012.3
20260905210809 31 69 3.2 25.7 0.00 0.00 0.00 63 1011.8
20260905204602 32 102 4.8 11.3 0.00 0.00 0.00 58 1011.7
20260905203807 33 145 1.6 11.3 0.00 0.00 0.00 57 1011.7
20260905201602 33 145 4.8 11.3 0.00 0.00 0.00 56 1011.7
20260905200105 34 123 8.0 17.7 0.00 0.00 0.00 55 1011.9
20260905194602 33 127 8.0 11.3 0.00 0.00 0.00 56 1012.0
20260905193754 33 113 8.0 11.3 0.00 0.00 0.00 58 1012.0
20260905191602 32 93 3.2 11.3 0.00 0.00 0.00 59 1012.4
20260905190104 32 337 1.6 14.5 0.00 0.00 0.00 59 1012.6
20260905184601 33 221 3.2 11.3 0.00 0.00 0.00 58 1012.7
20260905183103 33 141 3.2 14.5 0.00 0.08 0.00 57 1012.8
20260905181602 32 161 3.2 14.5 0.00 0.36 0.00 58 1013.2
20260905180811 32 202 3.2 8.0 0.00 0.36 0.00 61 1013.5
20260905175318 31 303 3.2 8.0 0.00 0.36 0.00 65 1013.8
20260905173104 31 312 3.2 11.3 0.00 0.36 0.00 65 1014.0
20260905171602 32 173 0.0 11.3 0.00 0.36 0.00 63 1014.1
20260905164602 30 209 1.6 4.8 0.00 0.36 0.00 67 1014.4
20260905163756 31 209 1.6 8.0 0.00 0.36 0.00 65 1014.5
20260905161601 31 165 3.2 8.0 0.00 0.36 0.00 68 1014.5
20260905160813 30 172 3.2 4.8 0.00 0.36 0.00 72 1014.6
20260905154602 30 172 0.0 4.8 0.00 0.36 0.00 73 1014.6
20260905153102 30 172 4.8 8.0 0.00 0.36 0.00 73 1014.7
20260905151603 29 172 3.2 8.0 0.00 0.36 0.00 76 1014.5
20260905144601 28 103 1.6 8.0 0.00 0.36 0.00 81 1014.5